JUPITER 3 (ECHOSTAR 24)

Last updated on Fri Dec 19 2025 00:02:54 GMT+0000 (Coordinated Universal Time)

1 57479U 23108A 25351.02584284 .00000000 00000+0 00000+0 0 9993 2 57479 0.0221 358.7158 0001213 263.5095 97.7610 1.00269586 8828
UTC large
Height (km)
Speed (km/s)
/
Latitude / Longitude
Inclination (degrees)
Orbital Period (minutes)
Azimuth
Elevation
Range (km)
Doppler Factor

Next 0 passes for location: London (51.5072 / 0.1276)

Sorry there are no passes over London.